User: anonymous   Login
Location: *
(48.4333°N, 5.0333°W)
Time: 16:02:18
(UTC+00:00)
Language:

Ariane Rocket - Orbit

View from above orbital plane
View from above orbital plane
View from above satellite
View from above satellite

Ground track
Ground track

The orbit data is extracted from the following two-line orbital elements,

1 23561U 95021B   20196.37201377 -.00000009  00000-0  12078-4 0  9994
2 23561  98.7219 235.9748 0007233 165.2243 205.4343 14.37975008322665
Epoch (UTC): 14 July 2020 08:55:41
Eccentricity: 0.0007233
inclination: 98.7219°
perigee height: 760 km
apogee height: 770 km
right ascension of ascending node: 235.9748°
argument of perigee: 165.2243°
revolutions per day: 14.37975008
mean anomaly at epoch: 205.4343°
orbit number at epoch: 32266

The dashed part of the orbit path shows where the satellite is in the earth's shadow,  

DLR